[[{"header":{"parameterUnit":"m.s-1","parameterCategory":1,"la1":30.2992,"la2":30.254,"lo1":-89.0895,"lo2":-89.0443,"dy":0.0025,"dx":0.0025,"nx":19,"ny":19,"refTime":"2026-05-08T03:00:00:Z","depth":0,"parameterNumber":2,"parameterNumberName":"U-component_of_WINDS"},"data":[0,0,0,-0.343,-0.3431,-0.3465,-0.3465,-0.3474,-0.3474,0,0,0,0,0,0,0,0,0,0,0,-0.3402,-0.3401,-0.343,-0.3431,-0.3465,-0.3465,-0.3474,-0.3474,0,0,0,0,0,0,0,0,0,0,0,-0.3402,-0.3401,-0.3401,-0.3431,-0.3464,-0.3465,-0.3474,-0.346,0,0,0,0,0,0,0,0,0,0,-0.3433,-0.3389,-0.3402,-0.3401,-0.3431,-0.3464,-0.3465,-0.346,-0.3461,-0.3444,0,-0.3427,0,-0.345,-0.3472,-0.3472,0,0,0,-0.3444,-0.3388,-0.3414,-0.3401,-0.3431,-0.3464,-0.3453,-0.3461,-0.3462,-0.3445,-0.3428,-0.3429,-0.345,-0.3472,-0.3472,-0.3335,-0.3334,0,0,-0.3442,-0.3398,-0.3413,-0.3414,-0.3409,-0.3452,-0.3454,-0.3462,-0.3439,-0.3428,-0.3429,-0.3451,-0.3472,-0.3472,-0.3336,-0.3335,0,0,0,-0.3428,-0.3396,-0.3422,-0.3413,-0.3421,-0.3452,-0.3455,-0.3438,-0.3451,-0.343,-0.3451,-0.3472,-0.3472,-0.3338,-0.3336,-0.3227,0,0,0,-0.3427,-0.3388,-0.3421,-0.3394,-0.3421,-0.3431,-0.343,-0.345,-0.3453,-0.3451,-0.3472,-0.3471,-0.3339,-0.3337,-0.3234,-0.3182,0,0,0,-0.3406,-0.3385,-0.3384,-0.3391,-0.3405,-0.3432,-0.3445,-0.3452,-0.3464,-0.3472,-0.3471,-0.334,-0.3337,-0.3239,-0.3192,-0.3129,0,0,0,-0.337,-0.3289,-0.3382,-0.3299,-0.3404,-0.3366,-0.3446,-0.342,-0.3414,-0.3472,-0.3339,-0.3336,-0.3241,-0.3197,-0.3135,-0.3066,-0.3035,0,0,-0.3243,-0.3272,-0.3227,-0.3311,-0.3245,-0.3365,-0.3282,-0.3319,-0.3361,-0.3341,-0.3338,-0.3232,-0.3192,-0.3131,-0.2882,-0.2856,0,0,0,-0.3172,-0.3138,-0.3131,-0.3123,-0.315,-0.3166,-0.3221,-0.3234,-0.3219,-0.3342,-0.3197,-0.3175,-0.314,-0.3109,-0.3087,-0.3058,-0.3321,-0.3322,-0.3322,-0.2926,-0.2983,-0.2911,-0.2971,-0.2962,-0.3018,-0.3015,-0.3042,-0.3104,-0.3068,-0.3061,-0.2903,-0.2865,-0.2849,-0.2818,-0.3033,-0.3033,-0.3033,-0.3032,-0.2741,-0.27,-0.2783,-0.2742,-0.2801,-0.2767,-0.2817,-0.2861,-0.2835,-0.2914,-0.2887,-0.2963,-0.282,-0.2795,-0.3025,-0.3026,-0.3027,-0.3028,-0.3028,-0.2582,-0.2572,-0.259,-0.2582,-0.257,-0.2635,-0.2605,-0.2663,-0.2716,-0.2689,-0.2684,-0.2686,-0.2691,-0.2684,-0.2683,-0.2683,-0.2682,-0.2682,-0.2682,-0.2407,-0.2432,-0.2401,-0.242,-0.2421,-0.2429,-0.2483,-0.2485,-0.25,-0.2544,-0.2544,-0.2604,-0.2797,-0.2841,-0.2673,-0.2675,-0.2676,-0.2677,-0.2677,-0.219,-0.2248,-0.22,-0.22,-0.2226,-0.2206,-0.2281,-0.2278,-0.2288,-0.227,-0.2338,-0.2473,-0.2506,-0.2524,-0.256,-0.233,-0.233,-0.233,-0.233,-0.2052,-0.2076,-0.2037,-0.2033,-0.2036,-0.2097,-0.2036,-0.2076,-0.2127,-0.2135,-0.2178,-0.2233,-0.2249,-0.2272,-0.2295,-0.233,-0.2046,-0.2046,-0.2045,-0.1919,-0.1945,-0.1883,-0.1934,-0.1958,-0.1976,-0.1918,-0.1908,-0.1978,-0.2035,-0.2141,-0.2153,-0.2243,-0.227,-0.2325,-0.236,-0.2424,0,0]},{"header":{"parameterUnit":"m.s-1","parameterCategory":1,"la1":30.2992,"la2":30.254,"lo1":-89.0895,"lo2":-89.0443,"dy":0.0025,"dx":0.0025,"nx":19,"ny":19,"refTime":"2026-05-08T03:00:00:Z","depth":0,"parameterNumber":3,"parameterNumberName":"V-component_of_WINDS"},"data":[0,0,0,3.8159,3.8162,3.8287,3.8287,3.8442,3.8443,0,0,0,0,0,0,0,0,0,0,0,3.812,3.8121,3.8159,3.8162,3.8287,3.8287,3.8441,3.8443,0,0,0,0,0,0,0,0,0,0,0,3.812,3.8121,3.8122,3.8162,3.8287,3.8287,3.8441,3.8348,0,0,0,0,0,0,0,0,0,0,3.8227,3.819,3.8121,3.8122,3.8163,3.8287,3.8287,3.8344,3.8354,3.8383,0,3.8411,0,3.843,3.8453,3.8454,0,0,0,3.8162,3.8182,3.8218,3.8123,3.8164,3.8286,3.823,3.8349,3.8361,3.8397,3.8413,3.8419,3.8432,3.8454,3.8455,3.8631,3.8632,0,0,3.8155,3.8141,3.821,3.8225,3.8208,3.8226,3.8234,3.8356,3.8372,3.8413,3.8422,3.8435,3.8455,3.8456,3.863,3.8631,0,0,0,3.8135,3.8136,3.8169,3.8219,3.8242,3.823,3.8239,3.8366,3.8379,3.8424,3.8436,3.8456,3.8458,3.863,3.8631,3.866,0,0,0,3.8131,3.8124,3.8166,3.8158,3.824,3.8306,3.8246,3.837,3.8384,3.8436,3.8456,3.8459,3.8629,3.863,3.8657,3.8674,0,0,0,3.8112,3.8122,3.814,3.8157,3.8211,3.8304,3.8324,3.8374,3.8392,3.8454,3.846,3.8628,3.863,3.8654,3.867,3.8719,0,0,0,3.8087,3.816,3.814,3.8226,3.821,3.8322,3.8323,3.8406,3.8462,3.8457,3.8629,3.8631,3.8654,3.8668,3.8716,3.8757,3.8773,0,0,3.817,3.8169,3.8221,3.8208,3.8321,3.8304,3.8421,3.8483,3.85,3.8586,3.8591,3.8658,3.867,3.8718,3.8866,3.8879,0,0,0,3.8242,3.828,3.8313,3.8368,3.8421,3.8469,3.8516,3.854,3.8615,3.8542,3.8688,3.8696,3.8725,3.8745,3.8756,3.8782,3.8639,3.8639,3.8639,3.8336,3.836,3.8448,3.8487,3.8541,3.8593,3.8638,3.8679,3.8682,3.8717,3.8742,3.8829,3.8853,3.8861,3.8888,3.8765,3.8765,3.8765,3.8765,3.8461,3.8518,3.8527,3.8616,3.864,3.8714,3.8768,3.8769,3.8841,3.8811,3.8837,3.8802,3.8874,3.8899,3.8768,3.8767,3.8767,3.8767,3.8767,3.8525,3.8557,3.8589,3.8675,3.8739,3.8776,3.8847,3.8865,3.8881,3.8907,3.8938,3.8937,3.894,3.8921,3.8921,3.8922,3.8922,3.8922,3.8922,3.8578,3.8614,3.8673,3.8741,3.8782,3.8838,3.8894,3.8934,3.8982,3.899,3.899,3.8991,3.8877,3.8849,3.8927,3.8926,3.8926,3.8925,3.8925,3.8695,3.8674,3.8765,3.8807,3.889,3.8954,3.8979,3.9059,3.9095,3.913,3.9127,3.904,3.9038,3.903,3.9006,3.9121,3.9121,3.9121,3.9121,3.8749,3.8753,3.8854,3.892,3.8986,3.902,3.9123,3.917,3.9213,3.9237,3.9223,3.9193,3.9184,3.9188,3.9176,3.9155,3.9304,3.9305,3.9305,3.8824,3.8835,3.892,3.8967,3.9035,3.9093,3.9192,3.9267,3.931,3.9313,3.9256,3.9248,3.9201,3.9184,3.9182,3.9163,3.9124,0,0]}]]